Hourly Data Report for May 15, 2022

TRENTON A
ONTARIO
Current Station Operator: DND

44°07'08.000" N
77°31'41.000" W
86.30 m
6158875
71621
YTR

Download Data

Hourly Data (May 2022)
Hourly Data Report for May 15, 2022
TIME
LST
Temp Definition
°C
Dew Point Definition
°C
Rel Hum Definition
%
Precip. Amount Definition
mm

Wind Dir Definition
10's deg

Wind Spd Definition
km/h
Visibility Definition
km
Stn Press Definition
kPa
Hmdx Definition


Wind Chill Definition


Weather Definition


00:00 17.5 16.6 94   5 5 24.1 100.09     LegendNANA
01:00 18.1 16.9 93   3 5 24.1 100.04     LegendNANA
02:00 17.6 16.9 96   28 5 24.1 99.96     LegendNANA
03:00 16.1 15.6 97   34 4 24.1 99.89     LegendNANA
04:00 16.4 15.9 97   16 4 9.7 99.86     Fog
05:00 16.1 15.5 96     0 24.1 99.92     LegendNANA
06:00 16.7 16.1 96   4 5 24.1 99.95     LegendNANA
07:00 18.4 17.0 92   30 8 24.1 100.00     LegendNANA
08:00 20.9 17.3 80   26 5 24.1 100.00 26   LegendNANA
09:00 22.3 16.5 70     0 24.1 99.95 27   LegendNANA
10:00 22.9 17.4 71   22 13 24.1 99.92 28   LegendNANA
11:00 20.9 16.0 74   22 18 24.1 99.92 26   LegendNANA
12:00 21.2 14.9 67   22 17 24.1 99.88 25   LegendNANA
13:00 22.8 16.9 69   20 18 24.1 99.79 28   LegendNANA
14:00 23.8 17.0 66   20 22 24.1 99.71 29   LegendNANA
15:00 24.7 16.8 61   20 21 24.1 99.63 30   LegendNANA
16:00 25.0 15.7 56   22 18 24.1 99.59 29   LegendNANA
17:00 24.9 16.1 58   22 18 24.1 99.60 30   LegendNANA
18:00 24.2 15.2 57   23 21 24.1 99.57 28   LegendNANA
19:00 23.0 15.1 61   23 11 24.1 99.60 27   LegendNANA
20:00 21.1 15.0 68   24 11 24.1 99.59 25   LegendNANA
21:00 20.8 15.7 73   21 8 24.1 99.62 25   LegendNANA
22:00 20.1 14.8 72   24 13 24.1 99.64     LegendNANA
23:00 20.7 15.5 72   22 9 24.1 99.62 25   LegendNANA

Notes on Data Quality.

Legend

  • E = Estimated
  • M = Missing
  • NA = Not Available*
  • [empty] = Indicates an unobserved value
Date modified: